When you browse on this site, cookies collect data to enhance your experience and personalize the content and advertising you see.
Visit our Privacy Policy to learn more. By continuing to use the site, you agree to this use of cookies and data.
  • In Spain
  • List of Countries
  • For 7 days
  • Water Temperature
  • Satellite Maps
  • Weather Map
  • Weather Widgets
  • user-avatar
    Login

    Hourly Weather Satif

    Today, 12 December, Wednesday

    Time Temperature Precipitation Wind Pressure Humidity
    00:00 +7°C° 0 mm 1 mps 673 mmHg 68%
    01:00 +7°C° 0 mm 1 mps 673 mmHg 68%
    02:00 +6°C° 0 mm 1 mps 673 mmHg 68%
    03:00 +6°C° 0 mm 1 mps 672 mmHg 68%
    04:00 +6°C° 0 mm 1 mps 672 mmHg 68%
    05:00 +6°C° 0 mm 1 mps 672 mmHg 68%
    06:00 +5°C° 0 mm 1 mps 672 mmHg 68%
    07:00 +7°C° 0 mm 1 mps 673 mmHg 61%
    08:00 +9°C° 0 mm 1 mps 674 mmHg 53%
    09:00 +11°C° 0 mm 1 mps 674 mmHg 46%
    10:00 +12°C° 0 mm 1 mps 674 mmHg 43%
    11:00 +12°C° 0 mm 1 mps 675 mmHg 39%
    12:00 +13°C° 0 mm 1 mps 675 mmHg 36%
    13:00 +13°C° 0 mm 1 mps 674 mmHg 37%
    14:00 +13°C° 0 mm 2 mps 674 mmHg 38%
    15:00 +13°C° 0 mm 2 mps 674 mmHg 39%
    16:00 +12°C° 0 mm 1 mps 673 mmHg 46%
    17:00 +10°C° 0 mm 1 mps 673 mmHg 54%
    18:00 +9°C° 0 mm 1 mps 672 mmHg 61%
    19:00 +8°C° 0 mm 1 mps 672 mmHg 64%
    20:00 +8°C° 0 mm 1 mps 672 mmHg 67%
    21:00 +6°C° 0 mm 0 mps 672 mmHg 70%
    22:00 +6°C° 0 mm 0 mps 672 mmHg 70%
    23:00 +7°C° 0 mm 1 mps 672 mmHg 70%

    Tomorrow, 13 December, Thursday

    Time Temperature Precipitation Wind Pressure Humidity
    00:00 +6°C° 0 mm 1 mps 672 mmHg 70%
    01:00 +6°C° 0 mm 1 mps 671 mmHg 69%
    02:00 +6°C° 0 mm 1 mps 671 mmHg 68%
    03:00 +6°C° 0 mm 1 mps 671 mmHg 66%
    04:00 +6°C° 0 mm 1 mps 671 mmHg 66%
    05:00 +5°C° 0 mm 2 mps 670 mmHg 66%
    06:00 +5°C° 0 mm 2 mps 670 mmHg 65%
    07:00 +6°C° 0 mm 2 mps 670 mmHg 63%
    08:00 +8°C° 0 mm 2 mps 671 mmHg 60%
    09:00 +9°C° 0 mm 3 mps 671 mmHg 58%
    10:00 +10°C° 0 mm 3 mps 671 mmHg 54%
    11:00 +11°C° 0 mm 4 mps 670 mmHg 51%
    12:00 +12°C° 0 mm 4 mps 670 mmHg 47%
    13:00 +12°C° 0 mm 4 mps 669 mmHg 49%
    14:00 +12°C° 0 mm 4 mps 669 mmHg 50%
    15:00 +11°C° 0 mm 4 mps 668 mmHg 52%
    16:00 +10°C° 0.1 mm 4 mps 668 mmHg 56%
    17:00 +10°C° 0.1 mm 4 mps 667 mmHg 60%
    18:00 +8°C° 0.1 mm 4 mps 667 mmHg 65%
    19:00 +7°C° 0.4 mm 4 mps 667 mmHg 66%
    20:00 +7°C° 0.4 mm 5 mps 666 mmHg 68%
    21:00 +7°C° 0.4 mm 6 mps 666 mmHg 70%
    22:00 +5°C° 0.5 mm 6 mps 666 mmHg 71%
    23:00 +5°C° 0.5 mm 7 mps 666 mmHg 72%

    Day after tomorrow, 14 December, Friday

    Time Temperature Precipitation Wind Pressure Humidity
    00:00 +4°C° 0.5 mm 7 mps 665 mmHg 73%
    01:00 +3°C° 0.1 mm 6 mps 664 mmHg 73%
    02:00 +2°C° 0.1 mm 6 mps 664 mmHg 72%
    03:00 +1°C° 0.1 mm 5 mps 663 mmHg 71%
    04:00 +2°C° 2 mm 6 mps 662 mmHg 75%
    05:00 +2°C° 2 mm 6 mps 662 mmHg 78%
    06:00 +2°C° 2 mm 7 mps 662 mmHg 82%
    07:00 +2°C° 0.9 mm 6 mps 663 mmHg 83%
    08:00 +3°C° 0.9 mm 6 mps 663 mmHg 83%
    09:00 +5°C° 0.9 mm 5 mps 664 mmHg 84%
    10:00 +5°C° 1.1 mm 5 mps 664 mmHg 84%
    11:00 +5°C° 1.1 mm 5 mps 665 mmHg 83%
    12:00 +5°C° 1.1 mm 6 mps 665 mmHg 83%
    13:00 +5°C° 2.5 mm 7 mps 666 mmHg 85%
    14:00 +3°C° 2.5 mm 9 mps 666 mmHg 87%
    15:00 +3°C° 2.5 mm 11 mps 667 mmHg 90%
    16:00 +3°C° 0.4 mm 12 mps 668 mmHg 88%
    17:00 +3°C° 0.4 mm 12 mps 668 mmHg 87%
    18:00 +3°C° 0.4 mm 13 mps 669 mmHg 85%
    19:00 +3°C° 0.1 mm 12 mps 670 mmHg 85%
    20:00 +3°C° 0.1 mm 11 mps 671 mmHg 85%
    21:00 +3°C° 0.1 mm 10 mps 671 mmHg 85%
    22:00 +3°C° 0.1 mm 9 mps 672 mmHg 85%
    23:00 +3°C° 0.1 mm 9 mps 672 mmHg 86%

    15 December, Saturday

    Time Temperature Precipitation Wind Pressure Humidity
    00:00 +4°C° 0.1 mm 8 mps 672 mmHg 86%
    01:00 +4°C° 0.1 mm 8 mps 673 mmHg 86%
    02:00 +3°C° 0.1 mm 7 mps 673 mmHg 86%
    03:00 +3°C° 0.1 mm 7 mps 673 mmHg 86%
    04:00 +3°C° 0.1 mm 6 mps 673 mmHg 86%
    05:00 +3°C° 0.1 mm 6 mps 674 mmHg 87%
    06:00 +3°C° 0.1 mm 5 mps 674 mmHg 88%
    07:00 +3°C° 0.1 mm 5 mps 674 mmHg 85%
    08:00 +5°C° 0.1 mm 5 mps 675 mmHg 83%
    09:00 +5°C° 0.1 mm 4 mps 676 mmHg 81%
    10:00 +6°C° 0.1 mm 4 mps 676 mmHg 78%
    11:00 +6°C° 0.1 mm 4 mps 676 mmHg 74%
    12:00 +7°C° 0.1 mm 4 mps 676 mmHg 71%
    13:00 +7°C° 0 mm 4 mps 676 mmHg 70%
    14:00 +7°C° 0 mm 4 mps 676 mmHg 70%
    15:00 +7°C° 0 mm 4 mps 675 mmHg 70%
    16:00 +7°C° 0 mm 3 mps 676 mmHg 74%
    17:00 +5°C° 0 mm 3 mps 676 mmHg 79%
    18:00 +5°C° 0 mm 2 mps 676 mmHg 84%
    19:00 +5°C° 0 mm 2 mps 676 mmHg 85%
    20:00 +5°C° 0 mm 2 mps 676 mmHg 86%
    21:00 +4°C° 0 mm 2 mps 676 mmHg 87%
    22:00 +4°C° 0 mm 2 mps 676 mmHg 87%
    23:00 +4°C° 0 mm 2 mps 676 mmHg 87%

    16 December, Sunday

    Time Temperature Precipitation Wind Pressure Humidity
    00:00 +5°C° 0 mm 1 mps 676 mmHg 87%
    01:00 +5°C° 0 mm 1 mps 676 mmHg 86%
    02:00 +5°C° 0 mm 1 mps 676 mmHg 85%
    03:00 +5°C° 0 mm 1 mps 676 mmHg 85%
    04:00 +5°C° 0 mm 1 mps 676 mmHg 83%
    05:00 +5°C° 0 mm 1 mps 676 mmHg 82%
    06:00 +5°C° 0 mm 1 mps 676 mmHg 81%
    07:00 +6°C° 0 mm 1 mps 677 mmHg 73%
    08:00 +8°C° 0 mm 1 mps 677 mmHg 65%
    09:00 +10°C° 0 mm 1 mps 678 mmHg 56%
    10:00 +12°C° 0 mm 1 mps 678 mmHg 53%
    11:00 +13°C° 0 mm 1 mps 678 mmHg 50%
    12:00 +14°C° 0 mm 1 mps 678 mmHg 47%
    13:00 +15°C° 0 mm 1 mps 678 mmHg 48%
    14:00 +15°C° 0 mm 1 mps 678 mmHg 49%
    15:00 +15°C° 0 mm 1 mps 678 mmHg 49%
    16:00 +14°C° 0 mm 1 mps 678 mmHg 54%
    17:00 +12°C° 0 mm 1 mps 677 mmHg 59%
    18:00 +11°C° 0 mm 1 mps 677 mmHg 65%
    19:00 +11°C° 0 mm 1 mps 677 mmHg 64%
    20:00 +10°C° 0 mm 2 mps 677 mmHg 64%
    21:00 +9°C° 0 mm 2 mps 677 mmHg 64%
    22:00 +9°C° 0 mm 2 mps 677 mmHg 64%
    23:00 +9°C° 0 mm 2 mps 677 mmHg 64%

    17 December, Monday

    Time Temperature Precipitation Wind Pressure Humidity
    00:00 +9°C° 0 mm 2 mps 677 mmHg 64%
    01:00 +9°C° 0 mm 2 mps 676 mmHg 65%
    02:00 +9°C° 0 mm 3 mps 676 mmHg 65%
    03:00 +8°C° 0 mm 3 mps 676 mmHg 65%
    04:00 +8°C° 0 mm 3 mps 676 mmHg 65%
    05:00 +8°C° 0 mm 3 mps 676 mmHg 65%
    06:00 +8°C° 0 mm 3 mps 676 mmHg 65%
    07:00 +9°C° 0 mm 3 mps 676 mmHg 61%
    08:00 +11°C° 0 mm 3 mps 677 mmHg 57%
    09:00 +12°C° 0 mm 3 mps 678 mmHg 54%
    10:00 +13°C° 0 mm 3 mps 678 mmHg 49%
    11:00 +16°C° 0 mm 3 mps 678 mmHg 44%
    12:00 +17°C° 0 mm 3 mps 678 mmHg 40%
    13:00 +16°C° 0 mm 3 mps 678 mmHg 42%
    14:00 +16°C° 0 mm 3 mps 678 mmHg 43%
    15:00 +16°C° 0 mm 2 mps 678 mmHg 45%
    16:00 +14°C° 0 mm 2 mps 678 mmHg 50%
    17:00 +13°C° 0 mm 2 mps 677 mmHg 55%
    18:00 +11°C° 0 mm 1 mps 677 mmHg 60%
    19:00 +11°C° 0 mm 1 mps 678 mmHg 60%
    20:00 +11°C° 0 mm 1 mps 678 mmHg 61%
    21:00 +10°C° 0 mm 1 mps 678 mmHg 62%
    22:00 +10°C° 0 mm 1 mps 678 mmHg 63%
    23:00 +10°C° 0 mm 1 mps 678 mmHg 64%
    Show more